Melton Hill Observed Data For Previous 48 Hours

Caption
Day and Hour Reservoir Elevation (behind dam)* Tailwater Elevation (below dam)* Average Hourly Discharge*
7/14/2018 2 AM EDT 793.97 740.86 0
7/14/2018 3 AM EDT 793.99 740.77 0
7/14/2018 4 AM EDT 794.00 740.73 0
7/14/2018 5 AM EDT 794.02 740.55 0
7/14/2018 6 AM EDT 794.03 740.71 0
7/14/2018 7 AM EDT 794.05 740.84 0
7/14/2018 8 AM EDT 794.06 740.84 0
7/14/2018 9 AM EDT 794.06 740.75 0
7/14/2018 10 AM EDT 794.07 740.60 0
7/14/2018 11 AM EDT 794.10 740.83 0
7/14/2018 12 PM EDT 794.12 740.78 0
7/14/2018 1 PM EDT 793.96 741.21 389
7/14/2018 2 PM EDT 793.97 741.12 6,000
7/14/2018 3 PM EDT 793.90 741.07 6,022
7/14/2018 4 PM EDT 793.90 740.99 6,043
7/14/2018 5 PM EDT 793.77 740.92 6,007
7/14/2018 6 PM EDT 793.71 741.09 6,019
7/14/2018 7 PM EDT 793.68 741.14 6,002
7/14/2018 8 PM EDT 793.70 741.07 6,011
7/14/2018 9 PM EDT 793.71 740.96 6,001
7/14/2018 10 PM EDT 793.87 740.37 183
7/14/2018 11 PM EDT 793.91 740.57 0
7/15/2018 12 AM EDT 793.95 740.90 0
7/15/2018 1 AM EDT 794.01 741.01 0
7/15/2018 2 AM EDT 794.03 740.90 0
7/15/2018 3 AM EDT 794.03 740.94 0
7/15/2018 4 AM EDT 794.04 740.93 0
7/15/2018 5 AM EDT 794.02 740.56 0
7/15/2018 6 AM EDT 794.05 740.45 0
7/15/2018 7 AM EDT 794.06 740.65 0
7/15/2018 8 AM EDT 794.08 740.94 0
7/15/2018 9 AM EDT 794.07 740.93 0
7/15/2018 10 AM EDT 794.08 740.73 0
7/15/2018 11 AM EDT 794.08 740.78 0
7/15/2018 12 PM EDT 794.10 740.76 0
7/15/2018 1 PM EDT 793.97 741.29 376
7/15/2018 2 PM EDT 793.97 741.22 5,992
7/15/2018 3 PM EDT 793.88 741.18 6,006
7/15/2018 4 PM EDT 793.88 741.12 6,016
7/15/2018 5 PM EDT 793.76 741.14 6,005
7/15/2018 6 PM EDT 793.72 741.11 5,992
7/15/2018 7 PM EDT 793.68 741.07 5,993
7/15/2018 8 PM EDT 793.70 741.00 6,002
7/15/2018 9 PM EDT 793.71 740.97 5,999
7/15/2018 10 PM EDT 793.87 740.48 198
7/15/2018 11 PM EDT 793.92 740.58 0
7/16/2018 12 AM EDT 793.96 740.83 0
7/16/2018 1 AM EDT 794.02 740.83 0
7/16/2018 2 AM EDT 794.04 740.80 0

Elevations are in feet above sea level. Discharges are in cubic feet per second and are reported at the end of the hour.